Time,TemperatureF,DewpointF,PressureIn,WindDirection,WindDirectionDegrees,WindSpeedMPH,WindSpeedGustMPH,Humidity,HourlyPrecipIn,Conditions,Clouds,dailyrainin,SoftwareType,DateUTC
2013-02-24 00:01:00,40.0,35.0,29.99,West,270,0.0,2.0,83,0.00,,,0.00,,2013-02-24 08:01:00,
2013-02-24 00:11:00,40.0,35.0,29.99,West,270,0.0,2.0,83,0.00,,,0.00,,2013-02-24 08:11:00,
2013-02-24 00:22:00,40.0,36.0,29.98,East,90,0.0,4.0,85,0.00,,,0.00,,2013-02-24 08:22:00,
2013-02-24 00:31:00,40.0,36.0,29.98,East,90,0.0,4.0,85,0.00,,,0.00,,2013-02-24 08:31:00,
2013-02-24 00:41:00,40.0,36.0,29.98,East,90,0.0,4.0,85,0.00,,,0.00,,2013-02-24 08:41:00,
2013-02-24 00:53:00,39.0,35.0,29.98,West,270,0.0,2.0,84,0.00,,,0.00,,2013-02-24 08:53:00,
2013-02-24 01:01:00,38.0,34.0,29.99,East,90,0.0,2.0,85,0.00,,,0.00,,2013-02-24 09:01:00,
2013-02-24 01:11:00,38.0,34.0,29.99,East,90,0.0,2.0,85,0.00,,,0.00,,2013-02-24 09:11:00,
2013-02-24 01:21:00,38.0,34.0,29.98,SE,135,0.0,3.0,87,0.00,,,0.00,,2013-02-24 09:21:00,
2013-02-24 01:31:00,38.0,35.0,29.98,SE,135,0.0,3.0,88,0.00,,,0.00,,2013-02-24 09:31:00,
2013-02-24 01:41:00,38.0,35.0,29.98,SE,135,0.0,3.0,88,0.00,,,0.00,,2013-02-24 09:41:00,
2013-02-24 01:52:00,37.0,34.0,29.99,SW,225,0.0,3.0,89,0.00,,,0.00,,2013-02-24 09:52:00,
2013-02-24 02:00:00,36.0,33.0,29.98,North,0,0.0,2.0,90,0.00,,,0.00,,2013-02-24 10:00:00,
2013-02-24 02:01:00,37.0,34.0,29.98,South,180,0.0,2.0,89,0.00,,,0.00,,2013-02-24 10:01:00,
2013-02-24 02:11:00,37.0,34.0,29.98,South,180,0.0,2.0,89,0.00,,,0.00,,2013-02-24 10:11:00,
2013-02-24 02:21:00,36.0,33.0,29.98,North,0,0.0,2.0,90,0.00,,,0.00,,2013-02-24 10:21:00,
2013-02-24 02:31:00,36.0,33.0,29.98,North,0,0.0,2.0,90,0.00,,,0.00,,2013-02-24 10:31:00,
2013-02-24 02:41:00,36.0,33.0,29.98,North,0,0.0,2.0,90,0.00,,,0.00,,2013-02-24 10:41:00,
2013-02-24 02:52:00,36.0,33.0,29.98,North,0,0.0,2.0,90,0.00,,,0.00,,2013-02-24 10:52:00,
2013-02-24 03:22:00,36.0,34.0,29.98,North,360,0.0,3.0,92,0.00,,,0.00,,2013-02-24 11:22:00,
2013-02-24 03:32:00,35.0,33.0,29.97,North,0,0.0,2.0,92,0.00,,,0.00,,2013-02-24 11:32:00,
2013-02-24 03:42:00,35.0,33.0,29.97,North,0,0.0,2.0,92,0.00,,,0.00,,2013-02-24 11:42:00,
2013-02-24 03:52:00,35.0,33.0,29.97,South,180,0.0,2.0,92,0.00,,,0.00,,2013-02-24 11:52:00,
2013-02-24 04:01:00,35.0,33.0,29.97,South,180,0.0,2.0,92,0.00,,,0.00,,2013-02-24 12:01:00,
2013-02-24 04:11:00,35.0,33.0,29.97,South,180,0.0,2.0,92,0.00,,,0.00,,2013-02-24 12:11:00,
2013-02-24 04:21:00,35.0,33.0,29.98,SE,135,0.0,3.0,92,0.00,,,0.00,,2013-02-24 12:21:00,
2013-02-24 04:46:00,35.0,33.0,29.98,SE,135,0.0,3.0,92,0.00,,,0.00,,2013-02-24 12:46:00,
2013-02-24 04:55:00,35.0,33.0,29.98,North,360,1.0,4.0,93,0.00,,,0.00,,2013-02-24 12:55:00,
2013-02-24 05:04:00,35.0,33.0,29.98,SE,135,1.0,4.0,93,0.00,,,0.00,,2013-02-24 13:04:00,
2013-02-24 05:15:00,35.0,33.0,29.98,SE,135,1.0,4.0,93,0.00,,,0.00,,2013-02-24 13:15:00,
2013-02-24 05:23:00,35.0,33.0,29.98,South,180,0.0,2.0,93,0.00,,,0.00,,2013-02-24 13:23:00,
2013-02-24 05:32:00,35.0,33.0,29.98,South,180,0.0,2.0,93,0.00,,,0.00,,2013-02-24 13:32:00,
2013-02-24 05:42:00,35.0,33.0,29.98,South,180,0.0,2.0,93,0.00,,,0.00,,2013-02-24 13:42:00,
2013-02-24 05:54:00,35.0,33.0,29.99,SW,225,1.0,4.0,93,0.00,,,0.00,,2013-02-24 13:54:00,
2013-02-24 06:01:00,35.0,33.0,29.99,SE,135,0.0,2.0,94,0.00,,,0.00,,2013-02-24 14:01:00,
2013-02-24 06:12:00,35.0,33.0,29.99,SE,135,0.0,2.0,94,0.00,,,0.00,,2013-02-24 14:12:00,
2013-02-24 06:22:00,35.0,34.0,29.99,North,0,0.0,2.0,95,0.00,,,0.00,,2013-02-24 14:22:00,
2013-02-24 06:32:00,36.0,35.0,29.99,WNW,292,1.0,5.0,96,0.00,,,0.00,,2013-02-24 14:32:00,
2013-02-24 06:43:00,36.0,35.0,29.99,WNW,292,1.0,5.0,96,0.00,,,0.00,,2013-02-24 14:43:00,
2013-02-24 06:53:00,36.0,35.0,30.00,South,180,1.0,5.0,95,0.00,,,0.00,,2013-02-24 14:53:00,
2013-02-24 07:01:00,36.0,35.0,30.00,NW,315,1.0,6.0,95,0.00,,,0.00,,2013-02-24 15:01:00,
2013-02-24 07:11:00,36.0,35.0,30.00,NW,315,1.0,6.0,95,0.00,,,0.00,,2013-02-24 15:11:00,
2013-02-24 07:22:00,36.0,35.0,30.00,NW,315,1.0,6.0,95,0.00,,,0.00,,2013-02-24 15:22:00,
2013-02-24 07:31:00,37.0,35.0,30.01,NE,45,0.0,2.0,94,0.00,,,0.00,,2013-02-24 15:31:00,
2013-02-24 07:41:00,37.0,35.0,30.01,NE,45,0.0,2.0,94,0.00,,,0.00,,2013-02-24 15:41:00,
2013-02-24 07:52:00,37.0,35.0,30.01,NE,45,0.0,2.0,94,0.00,,,0.00,,2013-02-24 15:52:00,
2013-02-24 08:01:00,37.0,35.0,30.01,NE,45,0.0,2.0,94,0.00,,,0.00,,2013-02-24 16:01:00,
2013-02-24 08:11:00,37.0,35.0,30.01,NE,45,0.0,2.0,94,0.00,,,0.00,,2013-02-24 16:11:00,
2013-02-24 08:22:00,42.0,39.0,30.02,SSW,202,1.0,2.0,90,0.00,,,0.00,,2013-02-24 16:22:00,
2013-02-24 08:32:00,44.0,40.0,30.03,North,0,0.0,2.0,85,0.00,,,0.00,,2013-02-24 16:32:00,
2013-02-24 08:42:00,44.0,40.0,30.03,North,0,0.0,2.0,85,0.00,,,0.00,,2013-02-24 16:42:00,
2013-02-24 08:52:00,47.0,41.0,30.03,West,270,0.0,3.0,80,0.00,,,0.00,,2013-02-24 16:52:00,
2013-02-24 09:01:00,50.0,41.0,30.02,SSW,202,0.0,4.0,70,0.00,,,0.00,,2013-02-24 17:01:00,
2013-02-24 09:21:00,53.0,39.0,30.03,East,90,1.0,5.0,60,0.00,,,0.00,,2013-02-24 17:21:00,
2013-02-24 09:31:00,55.0,36.0,30.03,SE,135,1.0,4.0,49,0.00,,,0.00,,2013-02-24 17:31:00,
2013-02-24 09:41:00,55.0,36.0,30.03,SE,135,1.0,4.0,49,0.00,,,0.00,,2013-02-24 17:41:00,
2013-02-24 09:52:00,57.0,35.0,30.03,NE,45,2.0,5.0,44,0.00,,,0.00,,2013-02-24 17:52:00,
2013-02-24 10:01:00,57.0,35.0,30.03,NE,45,2.0,5.0,44,0.00,,,0.00,,2013-02-24 18:01:00,
2013-02-24 10:21:00,59.0,33.0,30.02,East,90,2.0,6.0,37,0.00,,,0.00,,2013-02-24 18:21:00,
2013-02-24 10:31:00,59.0,33.0,30.02,East,90,2.0,6.0,37,0.00,,,0.00,,2013-02-24 18:31:00,
2013-02-24 10:42:00,59.0,33.0,30.02,East,90,2.0,6.0,37,0.00,,,0.00,,2013-02-24 18:42:00,
2013-02-24 10:52:00,60.0,29.0,30.02,North,360,2.0,7.0,31,0.00,,,0.00,,2013-02-24 18:52:00,
2013-02-24 11:01:00,60.0,28.0,30.02,NE,45,2.0,4.0,29,0.00,,,0.00,,2013-02-24 19:01:00,
2013-02-24 11:22:00,61.0,29.0,30.02,SW,225,1.0,8.0,29,0.00,,,0.00,,2013-02-24 19:22:00,
2013-02-24 11:31:00,62.0,33.0,30.01,East,90,2.0,6.0,34,0.00,,,0.00,,2013-02-24 19:31:00,
2013-02-24 11:41:00,62.0,33.0,30.01,East,90,2.0,6.0,34,0.00,,,0.00,,2013-02-24 19:41:00,
2013-02-24 11:52:00,63.0,31.0,30.01,NE,45,1.0,4.0,30,0.00,,,0.00,,2013-02-24 19:52:00,
2013-02-24 12:01:00,64.0,33.0,30.01,SW,225,1.0,6.0,31,0.00,,,0.00,,2013-02-24 20:01:00,
2013-02-24 12:21:00,63.0,29.0,30.00,NE,45,3.0,7.0,28,0.00,,,0.00,,2013-02-24 20:21:00,
2013-02-24 12:31:00,64.0,30.0,29.99,SE,135,2.0,5.0,28,0.00,,,0.00,,2013-02-24 20:31:00,
2013-02-24 12:41:00,64.0,30.0,29.99,SE,135,2.0,5.0,28,0.00,,,0.00,,2013-02-24 20:41:00,
2013-02-24 12:52:00,64.0,30.0,29.99,South,180,2.0,5.0,28,0.00,,,0.00,,2013-02-24 20:52:00,
2013-02-24 13:01:00,64.0,30.0,29.99,South,180,2.0,5.0,28,0.00,,,0.00,,2013-02-24 21:01:00,
2013-02-24 13:11:00,64.0,30.0,29.99,South,180,2.0,5.0,28,0.00,,,0.00,,2013-02-24 21:11:00,
2013-02-24 13:21:00,63.0,33.0,29.98,SW,225,3.0,6.0,33,0.00,,,0.00,,2013-02-24 21:21:00,
2013-02-24 13:31:00,62.0,33.0,29.97,NW,315,3.0,8.0,34,0.00,,,0.00,,2013-02-24 21:31:00,
2013-02-24 13:42:00,62.0,33.0,29.97,NW,315,3.0,8.0,34,0.00,,,0.00,,2013-02-24 21:42:00,
2013-02-24 13:52:00,63.0,34.0,29.96,NW,315,3.0,8.0,34,0.00,,,0.00,,2013-02-24 21:52:00,
2013-02-24 14:01:00,63.0,34.0,29.96,NW,315,3.0,8.0,34,0.00,,,0.00,,2013-02-24 22:01:00,
2013-02-24 14:11:00,63.0,34.0,29.96,NW,315,3.0,8.0,34,0.00,,,0.00,,2013-02-24 22:11:00,
2013-02-24 14:21:00,65.0,33.0,29.96,West,270,1.0,4.0,30,0.00,,,0.00,,2013-02-24 22:21:00,
2013-02-24 14:31:00,64.0,31.0,29.95,NE,45,3.0,7.0,29,0.00,,,0.00,,2013-02-24 22:31:00,
2013-02-24 14:42:00,64.0,31.0,29.95,NE,45,3.0,7.0,29,0.00,,,0.00,,2013-02-24 22:42:00,
2013-02-24 14:52:00,63.0,36.0,29.96,NW,315,4.0,10.0,36,0.00,,,0.00,,2013-02-24 22:52:00,
2013-02-24 15:01:00,62.0,35.0,29.96,NW,315,4.0,9.0,36,0.00,,,0.00,,2013-02-24 23:01:00,
2013-02-24 15:11:00,62.0,35.0,29.96,NW,315,4.0,9.0,36,0.00,,,0.00,,2013-02-24 23:11:00,
2013-02-24 15:21:00,61.0,34.0,29.95,WNW,292,3.0,8.0,36,0.00,,,0.00,,2013-02-24 23:21:00,
2013-02-24 15:31:00,61.0,35.0,29.96,NW,315,4.0,8.0,38,0.00,,,0.00,,2013-02-24 23:31:00,
2013-02-24 15:41:00,61.0,35.0,29.96,NW,315,4.0,8.0,38,0.00,,,0.00,,2013-02-24 23:41:00,
2013-02-24 15:52:00,62.0,35.0,29.95,West,270,3.0,6.0,37,0.00,,,0.00,,2013-02-24 23:52:00,
2013-02-24 16:01:00,62.0,37.0,29.95,North,360,3.0,8.0,39,0.00,,,0.00,,2013-02-25 00:01:00,
2013-02-24 16:11:00,62.0,37.0,29.95,North,360,3.0,8.0,39,0.00,,,0.00,,2013-02-25 00:11:00,
2013-02-24 16:21:00,61.0,35.0,29.95,NW,315,3.0,7.0,38,0.00,,,0.00,,2013-02-25 00:21:00,
2013-02-24 16:31:00,60.0,34.0,29.95,West,270,4.0,9.0,37,0.00,,,0.00,,2013-02-25 00:31:00,
2013-02-24 16:41:00,60.0,34.0,29.95,West,270,4.0,9.0,37,0.00,,,0.00,,2013-02-25 00:41:00,
2013-02-24 16:52:00,60.0,37.0,29.95,NW,315,3.0,6.0,42,0.00,,,0.00,,2013-02-25 00:52:00,
2013-02-24 17:01:00,60.0,37.0,29.95,West,270,2.0,5.0,43,0.00,,,0.00,,2013-02-25 01:01:00,
2013-02-24 17:11:00,60.0,37.0,29.95,West,270,2.0,5.0,43,0.00,,,0.00,,2013-02-25 01:11:00,
2013-02-24 17:21:00,60.0,37.0,29.95,West,270,2.0,5.0,43,0.00,,,0.00,,2013-02-25 01:21:00,
2013-02-24 17:31:00,59.0,38.0,29.96,West,270,2.0,4.0,45,0.00,,,0.00,,2013-02-25 01:31:00,
2013-02-24 17:42:00,59.0,38.0,29.96,West,270,2.0,4.0,45,0.00,,,0.00,,2013-02-25 01:42:00,
2013-02-24 17:52:00,58.0,38.0,29.96,West,270,1.0,4.0,47,0.00,,,0.00,,2013-02-25 01:52:00,
2013-02-24 18:01:00,56.0,39.0,29.96,West,270,0.0,2.0,52,0.00,,,0.00,,2013-02-25 02:01:00,
2013-02-24 18:11:00,56.0,39.0,29.96,West,270,0.0,2.0,52,0.00,,,0.00,,2013-02-25 02:11:00,
2013-02-24 18:21:00,56.0,39.0,29.96,West,270,0.0,2.0,52,0.00,,,0.00,,2013-02-25 02:21:00,
2013-02-24 18:31:00,52.0,38.0,29.97,SE,135,0.0,2.0,59,0.00,,,0.00,,2013-02-25 02:31:00,
2013-02-24 18:41:00,52.0,38.0,29.97,SE,135,0.0,2.0,59,0.00,,,0.00,,2013-02-25 02:41:00,
2013-02-24 18:52:00,49.0,37.0,29.97,WSW,248,0.0,2.0,64,0.00,,,0.00,,2013-02-25 02:52:00,
2013-02-24 19:01:00,49.0,37.0,29.97,WSW,248,0.0,2.0,64,0.00,,,0.00,,2013-02-25 03:01:00,
2013-02-24 19:11:00,49.0,37.0,29.97,WSW,248,0.0,2.0,64,0.00,,,0.00,,2013-02-25 03:11:00,
2013-02-24 19:21:00,47.0,37.0,29.99,South,180,0.0,2.0,69,0.00,,,0.00,,2013-02-25 03:21:00,
2013-02-24 19:31:00,47.0,37.0,29.99,South,180,0.0,2.0,69,0.00,,,0.00,,2013-02-25 03:31:00,
2013-02-24 19:42:00,47.0,37.0,29.99,South,180,0.0,2.0,69,0.00,,,0.00,,2013-02-25 03:42:00,
2013-02-24 19:52:00,46.0,37.0,30.00,SW,225,0.0,2.0,71,0.00,,,0.00,,2013-02-25 03:52:00,
2013-02-24 20:01:00,45.0,37.0,30.00,SE,135,0.0,2.0,74,0.00,,,0.00,,2013-02-25 04:01:00,
2013-02-24 20:11:00,45.0,37.0,30.00,SE,135,0.0,2.0,74,0.00,,,0.00,,2013-02-25 04:11:00,
2013-02-24 20:21:00,44.0,37.0,30.00,North,0,0.0,2.0,75,0.00,,,0.00,,2013-02-25 04:21:00,
2013-02-24 20:31:00,44.0,37.0,30.01,North,0,0.0,2.0,77,0.00,,,0.00,,2013-02-25 04:31:00,
2013-02-24 20:41:00,44.0,37.0,30.01,North,0,0.0,2.0,77,0.00,,,0.00,,2013-02-25 04:41:00,
2013-02-24 20:52:00,44.0,38.0,30.02,East,90,0.0,2.0,78,0.00,,,0.00,,2013-02-25 04:52:00,
2013-02-24 21:01:00,44.0,38.0,30.02,East,90,0.0,2.0,78,0.00,,,0.00,,2013-02-25 05:01:00,
2013-02-24 21:11:00,44.0,38.0,30.02,East,90,0.0,2.0,78,0.00,,,0.00,,2013-02-25 05:11:00,
2013-02-24 21:22:00,44.0,38.0,30.02,East,90,0.0,2.0,78,0.00,,,0.00,,2013-02-25 05:22:00,
2013-02-24 21:31:00,42.0,38.0,30.03,North,0,0.0,2.0,84,0.00,,,0.00,,2013-02-25 05:31:00,
2013-02-24 21:42:00,42.0,38.0,30.03,North,0,0.0,2.0,84,0.00,,,0.00,,2013-02-25 05:42:00,
2013-02-24 21:52:00,42.0,38.0,30.03,SE,135,0.0,2.0,86,0.00,,,0.00,,2013-02-25 05:52:00,
2013-02-24 22:02:00,42.0,39.0,30.04,SE,135,0.0,2.0,88,0.00,,,0.00,,2013-02-25 06:02:00,
2013-02-24 22:11:00,42.0,39.0,30.04,SE,135,0.0,2.0,88,0.00,,,0.00,,2013-02-25 06:11:00,
2013-02-24 22:21:00,41.0,38.0,30.04,South,180,0.0,2.0,89,0.00,,,0.00,,2013-02-25 06:21:00,
2013-02-24 22:31:00,41.0,38.0,30.04,South,180,0.0,2.0,89,0.00,,,0.00,,2013-02-25 06:31:00,
2013-02-24 22:41:00,41.0,38.0,30.04,South,180,0.0,2.0,89,0.00,,,0.00,,2013-02-25 06:41:00,
2013-02-24 22:52:00,40.0,37.0,30.05,SW,225,0.0,2.0,90,0.00,,,0.00,,2013-02-25 06:52:00,
2013-02-24 23:01:00,40.0,37.0,30.05,SW,225,0.0,2.0,90,0.00,,,0.00,,2013-02-25 07:01:00,
2013-02-24 23:11:00,39.0,37.0,30.06,South,180,0.0,2.0,92,0.00,,,0.00,,2013-02-25 07:11:00,
2013-02-24 23:21:00,39.0,37.0,30.06,South,180,0.0,2.0,92,0.00,,,0.00,,2013-02-25 07:21:00,
2013-02-24 23:31:00,39.0,37.0,30.06,South,180,0.0,2.0,92,0.00,,,0.00,,2013-02-25 07:31:00,
2013-02-24 23:42:00,39.0,37.0,30.06,South,180,0.0,2.0,92,0.00,,,0.00,,2013-02-25 07:42:00,
2013-02-24 23:52:00,38.0,36.0,30.05,East,90,0.0,2.0,93,0.00,,,0.00,,2013-02-25 07:52:00,